Location: Unspecified
(0.0000°N, 0.0000°E)
Time: 16:03:38
(UTC+00:00)

ISS - Pass Details

Date: 06 September 2024
Orbit: 414 x 424 km, 51.6° (Epoch: 15 September)

Event Time Altitude Azimuth Distance (km) Brightness Sun altitude
Rises 19:56:02 0° 252° (WSW) 2,342 1.0 -29.3°
Maximum altitude 20:00:22 10° 306° (NW) 1,458 -0.3 -30.4°
Enters shadow 20:00:39 10° 311° (NW) 1,463 -0.4 -30.5°
